Current Weather Conditions: station ENQR

sailwx.info

See reports from other nearby stations

no recent reports received from weather station ID ENQR

Tides Pressure Air temp Water temp Dewpoint Dewpoint depression Visibility Wind speed Wind direction Waves Ship positions
date/time (UTC)wind fromknots sea level pressurealtimeterstation pressurevisibilityair tempwater tempwave heightnotes
2017-Nov-21 00:50 040 8 5.4 6.0
2017-Nov-21 00:20 040 7 5.4 6.0
2017-Nov-20 23:50 030 8 5.4 6.0
2017-Nov-20 23:20 030 8 5.4 6.0
2017-Nov-20 22:50 040 8 5.4 6.0
2017-Nov-20 22:20 030 11 5.4 6.0
2017-Nov-20 21:50 040 11 5.4 6.0
2017-Nov-20 21:20 050 8 5.4 6.0
2017-Nov-20 20:50 050 6 5.4 6.0
2017-Nov-20 20:20 060 6 5.4 7.0
2017-Nov-20 19:50 050 9 5.4 6.0
2017-Nov-20 19:20 050 7 5.4 7.0
2017-Nov-20 18:50 070 6 5.4 7.0
2017-Nov-20 18:20 050 12 5.4 7.0
2017-Nov-20 17:50 060 8 5.4 7.0
2017-Nov-20 17:20 040 11 5.4 6.0
2017-Nov-20 16:50 050 8 5.4 6.0
2017-Nov-20 16:20 040 11 5.4 5.0
2017-Nov-20 15:50 300 8 5.4 5.0
2017-Nov-20 15:20 310 7 5.4 4.0
2017-Nov-20 14:50 330 11 5.4 4.0
2017-Nov-20 14:20 040 11 5.4 4.0
2017-Nov-20 13:50 350 15 5.4 4.0
2017-Nov-20 13:20 340 8 5.4 5.0
2017-Nov-20 12:50 340 9 5.4 5.0
2017-Nov-20 12:20 330 4 5.4 4.0
2017-Nov-20 11:50 040 8 4.3 4.0
2017-Nov-20 11:20 320 17 5.4 4.0
2017-Nov-20 10:50 290 13 5.4 5.0
2017-Nov-20 10:20 300 15 5.4 5.0
2017-Nov-20 09:50 310 18 5.4 5.0
2017-Nov-20 09:20 310 20 5.4 5.0
2017-Nov-20 08:50 320 17 5.4 5.0
2017-Nov-20 08:20 320 17 5.4 5.0
2017-Nov-20 07:50 320 18 5.4 5.0
2017-Nov-20 07:20 320 20 5.4 5.0
2017-Nov-20 06:50 320 20 5.4 5.0
2017-Nov-20 06:20 320 21 5.4 5.0
2017-Nov-20 05:50 320 20 5.4 5.0
2017-Nov-20 05:20 330 20 5.4 5.0
2017-Nov-20 04:50 330 20 5.4 5.0
2017-Nov-20 04:20 330 20 5.4 5.0
2017-Nov-20 03:50 320 20 5.4 5.0
2017-Nov-20 03:20 330 22 5.4 5.0
2017-Nov-20 02:50 310 28 5.4 4.0
2017-Nov-20 02:20 320 25 5.4 5.0
2017-Nov-20 01:50 340 25 5.4 5.0
2017-Nov-20 01:20 330 24 5.4 6.0
2017-Nov-20 00:50 340 25 5.4 5.0
2017-Nov-20 00:20 330 22 5.4 5.0
2017-Nov-19 23:50 330 24 5.4 5.0
2017-Nov-19 23:20 350 20 5.4 5.0
2017-Nov-19 22:50 360 19 5.4 5.0
2017-Nov-19 22:20 320 26 5.4 5.0
2017-Nov-19 21:50 340 25 5.4 5.0
2017-Nov-19 21:20 340 25 5.4 5.0
2017-Nov-19 20:50 330 25 5.4 5.0
2017-Nov-19 20:20 340 25 5.4 5.0
2017-Nov-19 19:50 340 27 5.4 5.0
2017-Nov-19 19:20 350 27 5.4 4.0
2017-Nov-19 18:50 350 27 5.4 4.0
2017-Nov-19 18:20 350 33 5.4 4.0
2017-Nov-19 17:50 340 29 5.4 4.0
2017-Nov-19 17:20 330 34 5.4 4.0
2017-Nov-19 16:50 330 35 5.4 4.0
2017-Nov-19 16:20 330 27 2.0 4.0
2017-Nov-19 15:50 330 29 5.4 4.0
2017-Nov-19 15:20 340 31 5.4 4.0
2017-Nov-19 14:50 330 27 5.4 5.0
2017-Nov-19 14:20 330 29 5.4 5.0
2017-Nov-19 13:50 320 27 5.4 5.0
2017-Nov-19 13:20 320 26 5.4 6.0
2017-Nov-19 12:50 320 26 5.4 5.0
2017-Nov-19 12:20 310 29 5.4 5.0
2017-Nov-19 11:50 340 32 5.4 5.0
2017-Nov-19 11:20 320 31 5.4 6.0
2017-Nov-19 10:50 310 27 5.4 6.0
2017-Nov-19 10:20 360 21 5.4 5.0
2017-Nov-19 09:50 320 27 5.4 6.0
2017-Nov-19 09:20 330 29 5.4 6.0
2017-Nov-19 08:50 320 28 5.4 6.0
2017-Nov-19 08:20 320 27 5.4 6.0
2017-Nov-19 07:50 330 32 5.4 6.0
2017-Nov-19 07:20 330 31 5.4 6.0
2017-Nov-19 06:50 330 34 5.4 6.0
2017-Nov-19 06:20 330 32 5.4 6.0
2017-Nov-19 05:50 330 34 5.4 6.0
2017-Nov-19 05:20 340 28 5.4 7.0
2017-Nov-19 04:50 340 34 gusting 44 5.4 6.0
2017-Nov-19 04:20 340 34 5.4 7.0
2017-Nov-19 03:50 350 33 5.4 6.0
2017-Nov-19 03:20 340 35 2.7 6.0
2017-Nov-19 02:50 340 35 5.4 7.0
2017-Nov-19 02:20 340 38 5.4 7.0